Regional Weather Roundup
Issued by NWS

Home | Current Version | Previous Version | Text Only | Print | Product List | Glossary Off
Versions: 1 2 3 4 5 6 7 8 9 10 11 12 13 14 15 16 17 18 19 20 21 22 23 24 25 26 27 28 29 30 31 32 33 34 35 36 37 38 39 40 41 42 43 44 45 46 47 48 49 50

000
ASUS43 KDTX 310510
RWRMI
MICHIGAN HOURLY REGIONAL WEATHER ROUNDUP
NATIONAL WEATHER SERVICE DETROIT/PONTIAC MI
100 AM EDT SUN AUG 31 2014

NOTE: "FAIR" INDICATES FEW OR NO CLOUDS BELOW 12,000 FEET WITH NO
SIGNIFICANT WEATHER AND/OR OBSTRUCTION TO VISIBILITY.

MIZ047>049-052>055-059>063-066>070-074>076-081>083-310600-
SOUTHEAST LOWER MICHIGAN

CITY           SKY/WX    TMP DP  RH WIND       PRES   REMARKS
ADRIAN         CLOUDY    74  69  85 W9        29.97R
ALMA           CLOUDY    71  66  86 SW6       29.89S
BAD AXE        CLOUDY    70  70 100 S6        29.88R
CARO           CLOUDY    70  69  97 S5        29.88S
DETROIT CITY   CLOUDY    79  68  69 SW14G24   29.93R
DETROIT        CLOUDY    76  69  79 S17       29.94S
FLINT          CLOUDY    74  67  78 SW8       29.91R
GROSSE ILE     CLOUDY    77  70  78 SW10G17   29.93S
HILLSDALE      HVY RAIN  69  69  99 W3        29.99R
HOWELL         RAIN      70  68  95 SW9       29.93S

CITY           SKY/WX    TMP DP  RH WIND       PRES   REMARKS
JACKSON        CLOUDY    68  65  90 SW8       29.95R
LAMBERTVILLE   CLOUDY    77  68  73 SW10G20   29.96R
LANSING        CLOUDY    71  67  87 SW10      29.92S
LAPEER         FAIR      71  67  88 SW8       29.92R
MASON          CLOUDY    69  66  90 SW7       29.93R
MONROE         CLOUDY    75  68  78 SW13      29.93S
MT. CLEMENS    CLOUDY    77  67  72 SW13      29.92R
PONTIAC        CLOUDY    71  68  90 SW3       29.93S
PORT HOPE        N/A     71  67  87 SW5       29.84F
PORT HURON     CLOUDY    72  68  88 CALM      29.92R
TRI CITIES     CLOUDY    73  69  87 SW9       29.88R
TROY           CLOUDY    76  69  77 SW7       29.95R
SAGINAW HB     CLOUDY    72  72 100 SW8       29.88R
$$
MIZ043>046-050>051-056>058-064>065-071>073-077>080-310600-
SOUTHWEST LOWER MICHIGAN

CITY           SKY/WX    TMP DP  RH WIND       PRES   REMARKS
BATTLE CREEK   CLOUDY    68  65  90 S10       29.95R
BENTON HARBOR  CLOUDY    71  68  90 S3        29.92R
BIG RAPIDS     CLOUDY    69  67  94 W12G21    29.88S
COLDWATER      CLOUDY    69  68  95 CALM      29.96S
FREMONT        FAIR      65  65  98 W3        29.89S
HOLLAND        MOCLDY    70  67  90 SW5       29.91S
GRAND RAPIDS   MOCLDY    73  70  90 VRB5      29.91S
IONIA          FAIR      71  69  94 SW7       29.90R
KALAMAZOO      CLOUDY    68  66  93 S7        29.95R
LUDINGTON      PTCLDY    62  61  96 N3        29.90R
MARSHALL       CLOUDY    67  66  94 SW7       29.95R
MOUNT PLEASANT MOCLDY    70  66  86 SW8       29.87S
MUSKEGON       MOCLDY    71  66  84 W5        29.90S
SOUTH HAVEN    CLOUDY    72  69  92 SW3       29.92S
$$
MIZ016>042-310600-
NORTHERN LOWER MICHIGAN

CITY           SKY/WX    TMP DP  RH WIND       PRES   REMARKS
ALPENA         LGT RAIN  67  66  97 SW7       29.80R
BEAVER ISLAND  CLOUDY    62  60  95 W6        29.83R
BELLAIRE       DRIZZLE   64  62  93 SW5       29.85R
CADILLAC       CLOUDY    65  65  99 W6        29.88R
CHARLEVOIX     CLOUDY    64  64 100 W10       29.86S FOG
FRANKFORT      CLOUDY    65  61  85 CALM      29.87S
GAYLORD        CLOUDY    63  62  97 W14       29.84R FOG
GRAYLING       CLOUDY    67  65  96 W7        29.87R
HARBOR SPRINGS DRIZZLE   64  62  95 W5        29.82R
HOUGHTON LAKE  CLOUDY    69  66  90 W9        29.86R
MANISTEE       CLOUDY    64  61  88 CALM      29.89R
OSCODA         MOCLDY    68  66  94 SW7       29.82S
PELLSTON       CLOUDY    63  63 100 W8        29.81R FOG
ROGERS CITY    CLOUDY    68  66  94 SW7       29.79S
TRAVERSE CITY  CLOUDY    65  61  87 W8        29.85R
$$
MIZ007>008-015-310600-
EASTERN UPPER MICHIGAN

CITY           SKY/WX    TMP DP  RH WIND       PRES   REMARKS
KINROSS        CLOUDY    64  64 100 W8        29.77R
MACKINAC ISLAN FOG       64  64 100 W10       29.78R VSB 1/4
NEWBERRY       CLOUDY    60  59  98 W7        29.81R
S. S. MARIE    FOG       62  61  96 W7        29.74S VSB 3/4
MUNISING         N/A     61  58  90 NW21      29.85R
$$
MIZ004>006-011>014-085-310600-
CENTRAL UPPER MICHIGAN

CITY           SKY/WX    TMP DP  RH WIND       PRES   REMARKS
MANISTIQUE     CLOUDY    58  58  98 NW10      29.83R
ESCANABA       CLOUDY    61  55  82 NW5       29.87S
MENOMINEE      MOCLDY    61  57  88 NW8       29.87F
SAWYER-GWINN   CLOUDY    58  57  96 N8        29.89S FOG
$$
MIZ001>003-009>011-084-310600-
WESTERN UPPER MICHIGAN

CITY           SKY/WX    TMP DP  RH WIND       PRES   REMARKS
IRON MOUNTAIN  CLOUDY    60  56  86 NW6       29.89S
HOUGHTON       CLOUDY    59  55  87 N7        29.90F
COPPER HARBOR    N/A     59  54  83 CALM      29.89S
IRONWOOD       MOCLDY    57  57 100 SE3       29.91
$$

ABBREVIATIONS USED IN REMARKS
   TC - TEMPERATURE IN CELSIUS
  WCI - WIND CHILL INDEX
   HX - HEAT INDEX
  VSB - VISIBILITY



USA.gov is the U.S. government's official web portal to all federal, state and local government web resources and services.